Year,Month,Day,Hour,Minute,Value (Times are PST for barometer in hPa)
2016,03,11,00,00,1011.02
2016,03,11,00,01,1011.01
2016,03,11,00,02,1011.01
2016,03,11,00,03,1011.01
2016,03,11,00,04,1011.01
2016,03,11,00,05,1011.01
2016,03,11,00,06,1011.01
2016,03,11,00,07,1011.01
2016,03,11,00,08,1011.01
2016,03,11,00,09,1011.01
2016,03,11,00,10,1011.01
2016,03,11,00,11,1011.01
2016,03,11,00,12,1011.01
2016,03,11,00,13,1011.01
2016,03,11,00,14,1011.01
2016,03,11,00,15,1010.74
2016,03,11,00,16,1010.74
2016,03,11,00,17,1010.74
2016,03,11,00,18,1010.74
2016,03,11,00,19,1010.74
2016,03,11,00,20,1010.74
2016,03,11,00,21,1010.74
2016,03,11,00,22,1010.74
2016,03,11,00,23,1010.74
2016,03,11,00,24,1010.74
2016,03,11,00,25,1010.74
2016,03,11,00,26,1010.74
2016,03,11,00,27,1010.74
2016,03,11,00,28,1010.74
2016,03,11,00,29,1010.74
2016,03,11,00,30,1010.67
2016,03,11,00,31,1010.67
2016,03,11,00,32,1010.67
2016,03,11,00,33,1010.67
2016,03,11,00,34,1010.67
2016,03,11,00,35,1010.67
2016,03,11,00,36,1010.67
2016,03,11,00,37,1010.67
2016,03,11,00,38,1010.67
2016,03,11,00,39,1010.67
2016,03,11,00,40,1010.67
2016,03,11,00,41,1010.67
2016,03,11,00,42,1010.67
2016,03,11,00,43,1010.67
2016,03,11,00,44,1010.67
2016,03,11,00,45,1010.36
2016,03,11,00,46,1010.36
2016,03,11,00,47,1010.36
2016,03,11,00,48,1010.36
2016,03,11,00,49,1010.36
2016,03,11,00,50,1010.36
2016,03,11,00,51,1010.36
2016,03,11,00,52,1010.36
2016,03,11,00,53,1010.36
2016,03,11,00,54,1010.36
2016,03,11,00,55,1010.36
2016,03,11,00,56,1010.36
2016,03,11,00,57,1010.36
2016,03,11,00,58,1010.36
2016,03,11,00,59,1010.36
2016,03,11,01,00,1009.89
2016,03,11,01,01,1009.89
2016,03,11,01,02,1009.89
2016,03,11,01,03,1009.89
2016,03,11,01,04,1009.89
2016,03,11,01,05,1009.89
2016,03,11,01,06,1009.89
2016,03,11,01,07,1009.89
2016,03,11,01,08,1009.89
2016,03,11,01,09,1009.89
2016,03,11,01,10,1009.89
2016,03,11,01,11,1009.89
2016,03,11,01,12,1009.89
2016,03,11,01,13,1009.89
2016,03,11,01,14,1009.89
2016,03,11,01,15,1010.02
2016,03,11,01,16,1010.02
2016,03,11,01,17,1010.02
2016,03,11,01,18,1010.02
2016,03,11,01,19,1010.02
2016,03,11,01,20,1010.02
2016,03,11,01,21,1010.02
2016,03,11,01,22,1010.02
2016,03,11,01,23,1010.02
2016,03,11,01,24,1010.02
2016,03,11,01,25,1010.02
2016,03,11,01,26,1010.02
2016,03,11,01,27,1010.02
2016,03,11,01,28,1010.02
2016,03,11,01,29,1010.02
2016,03,11,01,30,1009.75
2016,03,11,01,31,1009.75
2016,03,11,01,32,1009.75
2016,03,11,01,33,1009.75
2016,03,11,01,34,1009.75
2016,03,11,01,35,1009.75
2016,03,11,01,36,1009.75
2016,03,11,01,37,1009.75
2016,03,11,01,38,1009.75
2016,03,11,01,39,1009.75
2016,03,11,01,40,1009.75
2016,03,11,01,41,1009.75
2016,03,11,01,42,1009.75
2016,03,11,01,43,1009.75
2016,03,11,01,44,1009.75
2016,03,11,01,45,1009.79
2016,03,11,01,46,1009.79
2016,03,11,01,47,1009.79
2016,03,11,01,48,1009.79
2016,03,11,01,49,1009.79
2016,03,11,01,50,1009.79
2016,03,11,01,51,1009.79
2016,03,11,01,52,1009.79
2016,03,11,01,53,1009.79
2016,03,11,01,54,1009.79
2016,03,11,01,55,1009.79
2016,03,11,01,56,1009.79
2016,03,11,01,57,1009.79
2016,03,11,01,58,1009.79
2016,03,11,01,59,1009.79
2016,03,11,02,00,1009.25
2016,03,11,02,01,1009.25
2016,03,11,02,02,1009.25
2016,03,11,02,03,1009.25
2016,03,11,02,04,1009.25
2016,03,11,02,05,1009.25
2016,03,11,02,06,1009.25
2016,03,11,02,07,1009.25
2016,03,11,02,08,1009.25
2016,03,11,02,09,1009.25
2016,03,11,02,10,1009.25
2016,03,11,02,11,1009.25
2016,03,11,02,12,1009.25
2016,03,11,02,13,1009.25
2016,03,11,02,14,1009.25
2016,03,11,02,15,1009.18
2016,03,11,02,16,1009.18
2016,03,11,02,17,1009.18
2016,03,11,02,18,1009.18
2016,03,11,02,19,1009.18
2016,03,11,02,20,1009.18
2016,03,11,02,21,1009.18
2016,03,11,02,22,1009.18
2016,03,11,02,23,1009.18
2016,03,11,02,24,1009.18
2016,03,11,02,25,1009.18
2016,03,11,02,26,1009.18
2016,03,11,02,27,1009.18
2016,03,11,02,28,1009.18
2016,03,11,02,29,1009.18
2016,03,11,02,30,1008.97
2016,03,11,02,31,1008.97
2016,03,11,02,32,1008.97
2016,03,11,02,33,1008.97
2016,03,11,02,34,1008.97
2016,03,11,02,35,1008.97
2016,03,11,02,36,1008.97
2016,03,11,02,37,1008.97
2016,03,11,02,38,1008.97
2016,03,11,02,39,1008.97
2016,03,11,02,40,1008.97
2016,03,11,02,41,1008.97
2016,03,11,02,42,1008.97
2016,03,11,02,43,1008.97
2016,03,11,02,44,1008.97
2016,03,11,02,45,1008.57
2016,03,11,02,46,1008.57
2016,03,11,02,47,1008.57
2016,03,11,02,48,1008.57
2016,03,11,02,49,1008.57
2016,03,11,02,50,1008.57
2016,03,11,02,51,1008.57
2016,03,11,02,52,1008.57
2016,03,11,02,53,1008.57
2016,03,11,02,54,1008.57
2016,03,11,02,55,1008.57
2016,03,11,02,56,1008.57
2016,03,11,02,57,1008.57
2016,03,11,02,58,1008.57
2016,03,11,02,59,1008.57
2016,03,11,03,00,1008.06
2016,03,11,03,01,1008.06
2016,03,11,03,02,1008.06
2016,03,11,03,03,1008.06
2016,03,11,03,04,1008.06
2016,03,11,03,05,1008.06
2016,03,11,03,06,1008.06
2016,03,11,03,07,1008.06
2016,03,11,03,08,1008.06
2016,03,11,03,09,1008.06
2016,03,11,03,10,1008.06
2016,03,11,03,11,1008.06
2016,03,11,03,12,1008.06
2016,03,11,03,13,1008.06
2016,03,11,03,14,1008.06
2016,03,11,03,15,1008.06
2016,03,11,03,16,1008.06
2016,03,11,03,17,1008.06
2016,03,11,03,18,1008.06
2016,03,11,03,19,1008.06
2016,03,11,03,20,1008.06
2016,03,11,03,21,1008.06
2016,03,11,03,22,1008.06
2016,03,11,03,23,1008.06
2016,03,11,03,24,1008.06
2016,03,11,03,25,1008.06
2016,03,11,03,26,1008.06
2016,03,11,03,27,1008.06
2016,03,11,03,28,1008.06
2016,03,11,03,29,1008.06
2016,03,11,03,30,1007.76
2016,03,11,03,31,1007.76
2016,03,11,03,32,1007.76
2016,03,11,03,33,1007.76
2016,03,11,03,34,1007.76
2016,03,11,03,35,1007.76
2016,03,11,03,36,1007.76
2016,03,11,03,37,1007.76
2016,03,11,03,38,1007.76
2016,03,11,03,39,1007.76
2016,03,11,03,40,1007.76
2016,03,11,03,41,1007.76
2016,03,11,03,42,1007.76
2016,03,11,03,43,1007.76
2016,03,11,03,44,1007.76
2016,03,11,03,45,1007.82
2016,03,11,03,46,1007.82
2016,03,11,03,47,1007.82
2016,03,11,03,48,1007.82
2016,03,11,03,49,1007.82
2016,03,11,03,50,1007.82
2016,03,11,03,51,1007.82
2016,03,11,03,52,1007.82
2016,03,11,03,53,1007.82
2016,03,11,03,54,1007.82
2016,03,11,03,55,1007.82
2016,03,11,03,56,1007.82
2016,03,11,03,57,1007.82
2016,03,11,03,58,1007.82
2016,03,11,03,59,1007.82
2016,03,11,04,00,1007.79
2016,03,11,04,01,1007.79
2016,03,11,04,02,1007.79
2016,03,11,04,03,1007.79
2016,03,11,04,04,1007.79
2016,03,11,04,05,1007.79
2016,03,11,04,06,1007.79
2016,03,11,04,07,1007.79
2016,03,11,04,08,1007.79
2016,03,11,04,09,1007.79
2016,03,11,04,10,1007.79
2016,03,11,04,11,1007.79
2016,03,11,04,12,1007.79
2016,03,11,04,13,1007.79
2016,03,11,04,14,1007.79
2016,03,11,04,15,1007.45
2016,03,11,04,16,1007.45
2016,03,11,04,17,1007.45
2016,03,11,04,18,1007.45
2016,03,11,04,19,1007.45
2016,03,11,04,20,1007.45
2016,03,11,04,21,1007.45
2016,03,11,04,22,1007.45
2016,03,11,04,23,1007.45
2016,03,11,04,24,1007.45
2016,03,11,04,25,1007.45
2016,03,11,04,26,1007.45
2016,03,11,04,27,1007.45
2016,03,11,04,28,1007.45
2016,03,11,04,29,1007.45
2016,03,11,04,30,1007.04
2016,03,11,04,31,1007.04
2016,03,11,04,32,1007.04
2016,03,11,04,33,1007.04
2016,03,11,04,34,1007.04
2016,03,11,04,35,1007.04
2016,03,11,04,36,1007.04
2016,03,11,04,37,1007.04
2016,03,11,04,38,1007.04
2016,03,11,04,39,1007.04
2016,03,11,04,40,1007.04
2016,03,11,04,41,1007.04
2016,03,11,04,42,1007.04
2016,03,11,04,43,1007.04
2016,03,11,04,44,1007.04
2016,03,11,04,45,1006.50
2016,03,11,04,46,1006.50
2016,03,11,04,47,1006.50
2016,03,11,04,48,1006.50
2016,03,11,04,49,1006.50
2016,03,11,04,50,1006.50
2016,03,11,04,51,1006.50
2016,03,11,04,52,1006.50
2016,03,11,04,53,1006.50
2016,03,11,04,54,1006.50
2016,03,11,04,55,1006.50
2016,03,11,04,56,1006.50
2016,03,11,04,57,1006.50
2016,03,11,04,58,1006.50
2016,03,11,04,59,1006.50
2016,03,11,05,00,1006.54
2016,03,11,05,01,1006.54
2016,03,11,05,02,1006.54
2016,03,11,05,03,1006.54
2016,03,11,05,04,1006.54
2016,03,11,05,05,1006.54
2016,03,11,05,06,1006.54
2016,03,11,05,07,1006.54
2016,03,11,05,08,1006.54
2016,03,11,05,09,1006.54
2016,03,11,05,10,1006.54
2016,03,11,05,11,1006.54
2016,03,11,05,12,1006.54
2016,03,11,05,13,1006.54
2016,03,11,05,14,1006.54
2016,03,11,05,15,1006.20
2016,03,11,05,16,1006.20
2016,03,11,05,17,1006.20
2016,03,11,05,18,1006.20
2016,03,11,05,19,1006.20
2016,03,11,05,20,1006.20
2016,03,11,05,21,1006.20
2016,03,11,05,22,1006.20
2016,03,11,05,23,1006.20
2016,03,11,05,24,1006.20
2016,03,11,05,25,1006.20
2016,03,11,05,26,1006.20
2016,03,11,05,27,1006.20
2016,03,11,05,28,1006.20
2016,03,11,05,29,1006.20
2016,03,11,05,30,1005.93
2016,03,11,05,31,1005.93
2016,03,11,05,32,1005.93
2016,03,11,05,33,1005.93
2016,03,11,05,34,1005.93
2016,03,11,05,35,1005.93
2016,03,11,05,36,1005.93
2016,03,11,05,37,1005.93
2016,03,11,05,38,1005.93
2016,03,11,05,39,1005.93
2016,03,11,05,40,1005.93
2016,03,11,05,41,1005.93
2016,03,11,05,42,1005.93
2016,03,11,05,43,1005.93
2016,03,11,05,44,1005.93
2016,03,11,05,45,1005.51
2016,03,11,05,46,1005.49
2016,03,11,05,47,1005.49
2016,03,11,05,48,1005.49
2016,03,11,05,49,1005.49
2016,03,11,05,50,1005.49
2016,03,11,05,51,1005.49
2016,03,11,05,52,1005.49
2016,03,11,05,53,1005.49
2016,03,11,05,54,1005.49
2016,03,11,05,55,1005.49
2016,03,11,05,56,1005.49
2016,03,11,05,57,1005.49
2016,03,11,05,58,1005.49
2016,03,11,05,59,1005.49
2016,03,11,06,00,1005.11
2016,03,11,06,01,1005.11
2016,03,11,06,02,1005.11
2016,03,11,06,03,1005.11
2016,03,11,06,04,1005.11
2016,03,11,06,05,1005.11
2016,03,11,06,06,1005.11
2016,03,11,06,07,1005.11
2016,03,11,06,08,1005.11
2016,03,11,06,09,1005.11
2016,03,11,06,10,1005.11
2016,03,11,06,11,1005.11
2016,03,11,06,12,1005.11
2016,03,11,06,13,1005.11
2016,03,11,06,14,1005.11
2016,03,11,06,15,1004.95
2016,03,11,06,16,1004.95
2016,03,11,06,17,1004.95
2016,03,11,06,18,1004.95
2016,03,11,06,19,1004.95
2016,03,11,06,20,1004.95
2016,03,11,06,21,1004.95
2016,03,11,06,22,1004.95
2016,03,11,06,23,1004.95
2016,03,11,06,24,1004.95
2016,03,11,06,25,1004.95
2016,03,11,06,26,1004.95
2016,03,11,06,27,1004.95
2016,03,11,06,28,1004.95
2016,03,11,06,29,1004.95
2016,03,11,06,30,1004.54
2016,03,11,06,31,1004.54
2016,03,11,06,32,1004.54
2016,03,11,06,33,1004.54
2016,03,11,06,34,1004.54
2016,03,11,06,35,1004.54
2016,03,11,06,36,1004.54
2016,03,11,06,37,1004.54
2016,03,11,06,38,1004.54
2016,03,11,06,39,1004.54
2016,03,11,06,40,1004.54
2016,03,11,06,41,1004.54
2016,03,11,06,42,1004.54
2016,03,11,06,43,1004.54
2016,03,11,06,44,1004.54
2016,03,11,06,45,1004.30
2016,03,11,06,46,1004.30
2016,03,11,06,47,1004.30
2016,03,11,06,48,1004.30
2016,03,11,06,49,1004.30
2016,03,11,06,50,1004.30
2016,03,11,06,51,1004.30
2016,03,11,06,52,1004.30
2016,03,11,06,53,1004.30
2016,03,11,06,54,1004.30
2016,03,11,06,55,1004.30
2016,03,11,06,56,1004.30
2016,03,11,06,57,1004.30
2016,03,11,06,58,1004.30
2016,03,11,06,59,1004.30
2016,03,11,07,00,1003.96
2016,03,11,07,01,1003.96
2016,03,11,07,02,1003.96
2016,03,11,07,03,1003.96
2016,03,11,07,04,1003.96
2016,03,11,07,05,1003.96
2016,03,11,07,06,1003.96
2016,03,11,07,07,1003.96
2016,03,11,07,08,1003.96
2016,03,11,07,09,1003.96
2016,03,11,07,10,1003.96
2016,03,11,07,11,1003.96
2016,03,11,07,12,1003.96
2016,03,11,07,13,1003.96
2016,03,11,07,14,1003.96
2016,03,11,07,15,1003.84
2016,03,11,07,16,1003.83
2016,03,11,07,17,1003.83
2016,03,11,07,18,1003.83
2016,03,11,07,19,1003.83
2016,03,11,07,20,1003.83
2016,03,11,07,21,1003.83
2016,03,11,07,22,1003.83
2016,03,11,07,23,1003.83
2016,03,11,07,24,1003.83
2016,03,11,07,25,1003.83
2016,03,11,07,26,1003.83
2016,03,11,07,27,1003.83
2016,03,11,07,28,1003.83
2016,03,11,07,29,1003.83
2016,03,11,07,30,1003.90
2016,03,11,07,31,1003.90
2016,03,11,07,32,1003.90
2016,03,11,07,33,1003.90
2016,03,11,07,34,1003.90
2016,03,11,07,35,1003.90
2016,03,11,07,36,1003.90
2016,03,11,07,37,1003.90
2016,03,11,07,38,1003.90
2016,03,11,07,39,1003.90
2016,03,11,07,40,1003.90
2016,03,11,07,41,1003.90
2016,03,11,07,42,1003.90
2016,03,11,07,43,1003.90
2016,03,11,07,44,1003.90
2016,03,11,07,45,1003.62
2016,03,11,07,46,1003.62
2016,03,11,07,47,1003.62
2016,03,11,07,48,1003.62
2016,03,11,07,49,1003.62
2016,03,11,07,50,1003.62
2016,03,11,07,51,1003.62
2016,03,11,07,52,1003.62
2016,03,11,07,53,1003.62
2016,03,11,07,54,1003.62
2016,03,11,07,55,1003.62
2016,03,11,07,56,1003.62
2016,03,11,07,57,1003.62
2016,03,11,07,58,1003.62
2016,03,11,07,59,1003.62
2016,03,11,08,00,1003.47
2016,03,11,08,01,1003.46
2016,03,11,08,02,1003.46
2016,03,11,08,03,1003.46
2016,03,11,08,04,1003.46
2016,03,11,08,05,1003.46
2016,03,11,08,06,1003.46
2016,03,11,08,07,1003.46
2016,03,11,08,08,1003.46
2016,03,11,08,09,1003.46
2016,03,11,08,10,1003.46
2016,03,11,08,11,1003.46
2016,03,11,08,12,1003.46
2016,03,11,08,13,1003.46
2016,03,11,08,14,1003.46
2016,03,11,08,15,1003.22
2016,03,11,08,16,1003.22
2016,03,11,08,17,1003.22
2016,03,11,08,18,1003.22
2016,03,11,08,19,1003.22
2016,03,11,08,20,1003.22
2016,03,11,08,21,1003.22
2016,03,11,08,22,1003.22
2016,03,11,08,23,1003.22
2016,03,11,08,24,1003.22
2016,03,11,08,25,1003.22
2016,03,11,08,26,1003.22
2016,03,11,08,27,1003.22
2016,03,11,08,28,1003.22
2016,03,11,08,29,1003.22
2016,03,11,08,30,1002.81
2016,03,11,08,31,1002.81
2016,03,11,08,32,1002.81
2016,03,11,08,33,1002.81
2016,03,11,08,34,1002.81
2016,03,11,08,35,1002.81
2016,03,11,08,36,1002.81
2016,03,11,08,37,1002.81
2016,03,11,08,38,1002.81
2016,03,11,08,39,1002.81
2016,03,11,08,40,1002.81
2016,03,11,08,41,1002.81
2016,03,11,08,42,1002.81
2016,03,11,08,43,1002.81
2016,03,11,08,44,1002.81
2016,03,11,08,45,1002.62
2016,03,11,08,46,1002.61
2016,03,11,08,47,1002.61
2016,03,11,08,48,1002.61
2016,03,11,08,49,1002.61
2016,03,11,08,50,1002.61
2016,03,11,08,51,1002.61
2016,03,11,08,52,1002.61
2016,03,11,08,53,1002.61
2016,03,11,08,54,1002.61
2016,03,11,08,55,1002.61
2016,03,11,08,56,1002.61
2016,03,11,08,57,1002.61
2016,03,11,08,58,1002.61
2016,03,11,08,59,1002.61
2016,03,11,09,00,1002.27
2016,03,11,09,01,1002.27
2016,03,11,09,02,1002.27
2016,03,11,09,03,1002.27
2016,03,11,09,04,1002.27
2016,03,11,09,05,1002.27
2016,03,11,09,06,1002.27
2016,03,11,09,07,1002.27
2016,03,11,09,08,1002.27
2016,03,11,09,09,1002.27
2016,03,11,09,10,1002.27
2016,03,11,09,11,1002.27
2016,03,11,09,12,1002.27
2016,03,11,09,13,1002.27
2016,03,11,09,14,1002.27
2016,03,11,09,15,1002.13
2016,03,11,09,16,1002.13
2016,03,11,09,17,1002.13
2016,03,11,09,18,1002.13
2016,03,11,09,19,1002.13
2016,03,11,09,20,1002.13
2016,03,11,09,21,1002.13
2016,03,11,09,22,1002.13
2016,03,11,09,23,1002.13
2016,03,11,09,24,1002.13
2016,03,11,09,25,1002.13
2016,03,11,09,26,1002.13
2016,03,11,09,27,1002.13
2016,03,11,09,28,1002.13
2016,03,11,09,29,1002.13
2016,03,11,09,30,1001.80
2016,03,11,09,31,1001.80
2016,03,11,09,32,1001.80
2016,03,11,09,33,1001.80
2016,03,11,09,34,1001.80
2016,03,11,09,35,1001.80
2016,03,11,09,36,1001.80
2016,03,11,09,37,1001.80
2016,03,11,09,38,1001.80
2016,03,11,09,39,1001.80
2016,03,11,09,40,1001.80
2016,03,11,09,41,1001.80
2016,03,11,09,42,1001.80
2016,03,11,09,43,1001.80
2016,03,11,09,44,1001.80
2016,03,11,09,45,1001.76
2016,03,11,09,46,1001.76
2016,03,11,09,47,1001.76
2016,03,11,09,48,1001.76
2016,03,11,09,49,1001.76
2016,03,11,09,50,1001.76
2016,03,11,09,51,1001.76
2016,03,11,09,52,1001.76
2016,03,11,09,53,1001.76
2016,03,11,09,54,1001.76
2016,03,11,09,55,1001.76
2016,03,11,09,56,1001.76
2016,03,11,09,57,1001.76
2016,03,11,09,58,1001.76
2016,03,11,09,59,1001.76
2016,03,11,10,00,1001.76
2016,03,11,10,01,1001.76
2016,03,11,10,02,1001.76
2016,03,11,10,03,1001.76
2016,03,11,10,04,1001.76
2016,03,11,10,05,1001.76
2016,03,11,10,06,1001.76
2016,03,11,10,07,1001.76
2016,03,11,10,08,1001.76
2016,03,11,10,09,1001.76
2016,03,11,10,10,1001.76
2016,03,11,10,11,1001.76
2016,03,11,10,12,1001.76
2016,03,11,10,13,1001.76
2016,03,11,10,14,1001.76
2016,03,11,10,15,1001.66
2016,03,11,10,16,1001.66
2016,03,11,10,17,1001.66
2016,03,11,10,18,1001.66
2016,03,11,10,19,1001.66
2016,03,11,10,20,1001.66
2016,03,11,10,21,1001.66
2016,03,11,10,22,1001.66
2016,03,11,10,23,1001.66
2016,03,11,10,24,1001.66
2016,03,11,10,25,1001.66
2016,03,11,10,26,1001.66
2016,03,11,10,27,1001.66
2016,03,11,10,28,1001.66
2016,03,11,10,29,1001.66
2016,03,11,10,30,1001.27
2016,03,11,10,31,1001.25
2016,03,11,10,32,1001.25
2016,03,11,10,33,1001.25
2016,03,11,10,34,1001.25
2016,03,11,10,35,1001.25
2016,03,11,10,36,1001.25
2016,03,11,10,37,1001.25
2016,03,11,10,38,1001.25
2016,03,11,10,39,1001.25
2016,03,11,10,40,1001.25
2016,03,11,10,41,1001.25
2016,03,11,10,42,1001.25
2016,03,11,10,43,1001.25
2016,03,11,10,44,1001.25
2016,03,11,10,45,1000.90
2016,03,11,10,46,1000.88
2016,03,11,10,47,1000.88
2016,03,11,10,48,1000.88
2016,03,11,10,49,1000.88
2016,03,11,10,50,1000.88
2016,03,11,10,51,1000.88
2016,03,11,10,52,1000.88
2016,03,11,10,53,1000.88
2016,03,11,10,54,1000.88
2016,03,11,10,55,1000.88
2016,03,11,10,56,1000.88
2016,03,11,10,57,1000.88
2016,03,11,10,58,1000.88
2016,03,11,10,59,1000.88
2016,03,11,11,00,1000.69
2016,03,11,11,01,1000.68
2016,03,11,11,02,1000.68
2016,03,11,11,03,1000.68
2016,03,11,11,04,1000.68
2016,03,11,11,05,1000.68
2016,03,11,11,06,1000.68
2016,03,11,11,07,1000.68
2016,03,11,11,08,1000.68
2016,03,11,11,09,1000.68
2016,03,11,11,10,1000.68
2016,03,11,11,11,1000.68
2016,03,11,11,12,1000.68
2016,03,11,11,13,1000.68
2016,03,11,11,14,1000.68
2016,03,11,11,15,1000.34
2016,03,11,11,16,1000.34
2016,03,11,11,17,1000.34
2016,03,11,11,18,1000.34
2016,03,11,11,19,1000.34
2016,03,11,11,20,1000.34
2016,03,11,11,21,1000.34
2016,03,11,11,22,1000.34
2016,03,11,11,23,1000.34
2016,03,11,11,24,1000.34
2016,03,11,11,25,1000.34
2016,03,11,11,26,1000.34
2016,03,11,11,27,1000.34
2016,03,11,11,28,1000.34
2016,03,11,11,29,1000.34
2016,03,11,11,30,1000.17
2016,03,11,11,31,1000.17
2016,03,11,11,32,1000.17
2016,03,11,11,33,1000.17
2016,03,11,11,34,1000.17
2016,03,11,11,35,1000.17
2016,03,11,11,36,1000.17
2016,03,11,11,37,1000.17
2016,03,11,11,38,1000.17
2016,03,11,11,39,1000.17
2016,03,11,11,40,1000.17
2016,03,11,11,41,1000.17
2016,03,11,11,42,1000.17
2016,03,11,11,43,1000.17
2016,03,11,11,44,1000.17
2016,03,11,11,45,999.70
2016,03,11,11,46,999.70
2016,03,11,11,47,999.70
2016,03,11,11,48,999.70
2016,03,11,11,49,999.70
2016,03,11,11,50,999.70
2016,03,11,11,51,999.70
2016,03,11,11,52,999.70
2016,03,11,11,53,999.70
2016,03,11,11,54,999.70
2016,03,11,11,55,999.70
2016,03,11,11,56,999.70
2016,03,11,11,57,999.70
2016,03,11,11,58,999.70
2016,03,11,11,59,999.70
2016,03,11,12,00,999.70
2016,03,11,12,01,999.70
2016,03,11,12,02,999.70
2016,03,11,12,03,999.70
2016,03,11,12,04,999.70
2016,03,11,12,05,999.70
2016,03,11,12,06,999.70
2016,03,11,12,07,999.70
2016,03,11,12,08,999.70
2016,03,11,12,09,999.70
2016,03,11,12,10,999.70
2016,03,11,12,11,999.70
2016,03,11,12,12,999.70
2016,03,11,12,13,999.70
2016,03,11,12,14,999.70
2016,03,11,12,15,999.54
2016,03,11,12,16,999.53
2016,03,11,12,17,999.53
2016,03,11,12,18,999.53
2016,03,11,12,19,999.53
2016,03,11,12,20,999.53
2016,03,11,12,21,999.53
2016,03,11,12,22,999.53
2016,03,11,12,23,999.53
2016,03,11,12,24,999.53
2016,03,11,12,25,999.53
2016,03,11,12,26,999.53
2016,03,11,12,27,999.53
2016,03,11,12,28,999.53
2016,03,11,12,29,999.53
2016,03,11,12,30,999.19
2016,03,11,12,31,999.19
2016,03,11,12,32,999.19
2016,03,11,12,33,999.19
2016,03,11,12,34,999.19
2016,03,11,12,35,999.19
2016,03,11,12,36,999.19
2016,03,11,12,37,999.19
2016,03,11,12,38,999.19
2016,03,11,12,39,999.19
2016,03,11,12,40,999.19
2016,03,11,12,41,999.19
2016,03,11,12,42,999.19
2016,03,11,12,43,999.19
2016,03,11,12,44,999.19
2016,03,11,12,45,999.09
2016,03,11,12,46,999.09
2016,03,11,12,47,999.09
2016,03,11,12,48,999.09
2016,03,11,12,49,999.09
2016,03,11,12,50,999.09
2016,03,11,12,51,999.09
2016,03,11,12,52,999.09
2016,03,11,12,53,999.09
2016,03,11,12,54,999.09
2016,03,11,12,55,999.09
2016,03,11,12,56,999.09
2016,03,11,12,57,999.09
2016,03,11,12,58,999.09
2016,03,11,12,59,999.09
2016,03,11,13,00,998.99
2016,03,11,13,01,998.99
2016,03,11,13,02,998.99
2016,03,11,13,03,998.99
2016,03,11,13,04,998.99
2016,03,11,13,05,998.99
2016,03,11,13,06,998.99
2016,03,11,13,07,998.99
2016,03,11,13,08,998.99
2016,03,11,13,09,998.99
2016,03,11,13,10,998.99
2016,03,11,13,11,998.99
2016,03,11,13,12,998.99
2016,03,11,13,13,998.99
2016,03,11,13,14,998.99
2016,03,11,13,15,998.88
2016,03,11,13,16,998.88
2016,03,11,13,17,998.88
2016,03,11,13,18,998.88
2016,03,11,13,19,998.88
2016,03,11,13,20,998.88
2016,03,11,13,21,998.88
2016,03,11,13,22,998.88
2016,03,11,13,23,998.88
2016,03,11,13,24,998.88
2016,03,11,13,25,998.88
2016,03,11,13,26,998.88
2016,03,11,13,27,998.88
2016,03,11,13,28,998.88
2016,03,11,13,29,998.88
2016,03,11,13,30,998.62
2016,03,11,13,31,998.61
2016,03,11,13,32,998.61
2016,03,11,13,33,998.61
2016,03,11,13,34,998.61
2016,03,11,13,35,998.61
2016,03,11,13,36,998.61
2016,03,11,13,37,998.61
2016,03,11,13,38,998.61
2016,03,11,13,39,998.61
2016,03,11,13,40,998.61
2016,03,11,13,41,998.61
2016,03,11,13,42,998.61
2016,03,11,13,43,998.61
2016,03,11,13,44,998.61
2016,03,11,13,45,998.31
2016,03,11,13,46,998.31
2016,03,11,13,47,998.31
2016,03,11,13,48,998.31
2016,03,11,13,49,998.31
2016,03,11,13,50,998.31
2016,03,11,13,51,998.31
2016,03,11,13,52,998.31
2016,03,11,13,53,998.31
2016,03,11,13,54,998.31
2016,03,11,13,55,998.31
2016,03,11,13,56,998.31
2016,03,11,13,57,998.31
2016,03,11,13,58,998.31
2016,03,11,13,59,998.31
2016,03,11,14,00,998.31
2016,03,11,14,01,998.31
2016,03,11,14,02,998.31
2016,03,11,14,03,998.31
2016,03,11,14,04,998.31
2016,03,11,14,05,998.31
2016,03,11,14,06,998.31
2016,03,11,14,07,998.31
2016,03,11,14,08,998.31
2016,03,11,14,09,998.31
2016,03,11,14,10,998.31
2016,03,11,14,11,998.31
2016,03,11,14,12,998.31
2016,03,11,14,13,998.31
2016,03,11,14,14,998.31
2016,03,11,14,15,998.18
2016,03,11,14,16,998.17
2016,03,11,14,17,998.17
2016,03,11,14,18,998.17
2016,03,11,14,19,998.17
2016,03,11,14,20,998.17
2016,03,11,14,21,998.17
2016,03,11,14,22,998.17
2016,03,11,14,23,998.17
2016,03,11,14,24,998.17
2016,03,11,14,25,998.17
2016,03,11,14,26,998.17
2016,03,11,14,27,998.17
2016,03,11,14,28,998.17
2016,03,11,14,29,998.17
2016,03,11,14,30,998.17
2016,03,11,14,31,998.17
2016,03,11,14,32,998.17
2016,03,11,14,33,998.17
2016,03,11,14,34,998.17
2016,03,11,14,35,998.17
2016,03,11,14,36,998.17
2016,03,11,14,37,998.17
2016,03,11,14,38,998.17
2016,03,11,14,39,998.17
2016,03,11,14,40,998.17
2016,03,11,14,41,998.17
2016,03,11,14,42,998.17
2016,03,11,14,43,998.17
2016,03,11,14,44,998.17
2016,03,11,14,45,998.14
2016,03,11,14,46,998.14
2016,03,11,14,47,998.14
2016,03,11,14,48,998.14
2016,03,11,14,49,998.14
2016,03,11,14,50,998.14
2016,03,11,14,51,998.14
2016,03,11,14,52,998.14
2016,03,11,14,53,998.14
2016,03,11,14,54,998.14
2016,03,11,14,55,998.14
2016,03,11,14,56,998.14
2016,03,11,14,57,998.14
2016,03,11,14,58,998.14
2016,03,11,14,59,998.14
2016,03,11,15,00,997.98
2016,03,11,15,01,997.97
2016,03,11,15,02,997.97
2016,03,11,15,03,997.97
2016,03,11,15,04,997.97
2016,03,11,15,05,997.97
2016,03,11,15,06,997.97
2016,03,11,15,07,997.97
2016,03,11,15,08,997.97
2016,03,11,15,09,997.97
2016,03,11,15,10,997.97
2016,03,11,15,11,997.97
2016,03,11,15,12,997.97
2016,03,11,15,13,997.97
2016,03,11,15,14,997.97
2016,03,11,15,15,997.62
2016,03,11,15,16,997.60
2016,03,11,15,17,997.60
2016,03,11,15,18,997.60
2016,03,11,15,19,997.60
2016,03,11,15,20,997.60
2016,03,11,15,21,997.60
2016,03,11,15,22,997.60
2016,03,11,15,23,997.60
2016,03,11,15,24,997.60
2016,03,11,15,25,997.60
2016,03,11,15,26,997.60
2016,03,11,15,27,997.60
2016,03,11,15,28,997.60
2016,03,11,15,29,997.60
2016,03,11,15,30,997.56
2016,03,11,15,31,997.56
2016,03,11,15,32,997.56
2016,03,11,15,33,997.56
2016,03,11,15,34,997.56
2016,03,11,15,35,997.56
2016,03,11,15,36,997.56
2016,03,11,15,37,997.56
2016,03,11,15,38,997.56
2016,03,11,15,39,997.56
2016,03,11,15,40,997.56
2016,03,11,15,41,997.56
2016,03,11,15,42,997.56
2016,03,11,15,43,997.56
2016,03,11,15,44,997.56
2016,03,11,15,45,997.53
2016,03,11,15,46,997.53
2016,03,11,15,47,997.53
2016,03,11,15,48,997.53
2016,03,11,15,49,997.53
2016,03,11,15,50,997.53
2016,03,11,15,51,997.53
2016,03,11,15,52,997.53
2016,03,11,15,53,997.53
2016,03,11,15,54,997.53
2016,03,11,15,55,997.53
2016,03,11,15,56,997.53
2016,03,11,15,57,997.53
2016,03,11,15,58,997.53
2016,03,11,15,59,997.53
2016,03,11,16,00,997.46
2016,03,11,16,01,997.46
2016,03,11,16,02,997.46
2016,03,11,16,03,997.46
2016,03,11,16,04,997.46
2016,03,11,16,05,997.46
2016,03,11,16,06,997.46